Weather History for KDAB - June, 2013

Change the Weather History Date:

Sunday, June 30, 2013

  Actual Average Record
Temperature  
Mean Temperature 82 °F 81 °F  
Max Temperature 90 °F 89 °F 100 °F (1998)
Min Temperature 74 °F 73 °F 65 °F (1981)
Degree Days  
Heating Degree Days 0 0  
Month to date heating degree days 0 0  
Since 1 June heating degree days 0 0  
Since 1 July heating degree days 694 809  
Cooling Degree Days 17 16  
Month to date cooling degree days 488 447  
Year to date cooling degree days 1140 1048  
Since 1 June cooling degree days 488 447  
Growing Degree Days 32 (Base 50)    
Moisture  
Dew Point 73 °F    
Average Humidity 79    
Maximum Humidity 93    
Minimum Humidity 64    
Precipitation  
Precipitation 0.60 in 0.19 in 6.08 in (1966)
Month to date precipitation 7.40 5.83  
Year to date precipitation 22.23 20.90  
Sea Level Pressure  
Sea Level Pressure 29.86 in    
Wind  
Wind Speed 7 mph (SSW)    
Max Wind Speed 23 mph    
Max Gust Speed 28 mph    
Visibility 9 miles    
Events Rain , Thunderstorm    
T = Trace of Precipitation, MM = Missing Value Source: NWS Daily Summary

Daily Weather History Graph

Daily Weather History Graph

Search for Another Location

Airport or City:

Trip Planner

Search our weather history database for the weather conditions in past years. The results will help you decide how hot, cold, wet, or windy it might be!

Date:

Astronomy

Jun. 30, 2013 Rise Set
Actual Time 6:28 AM EDT 8:27 PM EDT
Civil Twilight 6:01 AM EDT 8:54 PM EDT
Nautical Twilight 5:28 AM EDT 9:27 PM EDT
Astronomical Twilight 4:53 AM EDT 10:02 PM EDT
Moon 1:03 AM EDT (6/30) 2:00 PM EDT (6/30)
Length of Visible Light 14h 53m
Length of Day
13h 59m
Last Quarter, 45% of the Moon is Illuminated
Jun 30
Last Quarter
Jul 8
New
Jul 15
First Quarter
Jul 22
Full
Jul 29
Last Quarter

Hourly Weather History & Observations

Time (EDT) Temp. Heat Index Dew Point Humidity Pressure Visibility Wind Dir Wind Speed Gust Speed Precip Events Conditions
12:53 AM 75.9 °F - 72.0 °F 87% 29.84 in 10.0 mi South 6.9 mph - N/A   Mostly Cloudy
1:53 AM 75.9 °F - 72.0 °F 87% 29.83 in 10.0 mi SSW 6.9 mph - N/A   Mostly Cloudy
2:53 AM 75.0 °F - 72.0 °F 90% 29.82 in 10.0 mi South 4.6 mph - N/A   Mostly Cloudy
3:53 AM 75.9 °F - 72.0 °F 87% 29.82 in 10.0 mi South 4.6 mph - N/A   Mostly Cloudy
4:53 AM 75.0 °F - 72.0 °F 90% 29.83 in 10.0 mi South 5.8 mph - N/A   Scattered Clouds
5:53 AM 75.0 °F - 72.0 °F 90% 29.83 in 10.0 mi South 6.9 mph - N/A   Scattered Clouds
6:53 AM 75.0 °F - 72.0 °F 90% 29.84 in 10.0 mi SSW 4.6 mph - N/A   Scattered Clouds
7:53 AM 77.0 °F - 73.0 °F 88% 29.85 in 10.0 mi SSW 8.1 mph - N/A   Scattered Clouds
8:53 AM 81.0 °F 86.2 °F 73.9 °F 79% 29.86 in 10.0 mi SSW 8.1 mph - N/A   Scattered Clouds
9:34 AM 82.4 °F 88.2 °F 73.4 °F 74% 29.87 in 10.0 mi SSW 9.2 mph - N/A   Mostly Cloudy
9:53 AM 84.9 °F 92.1 °F 73.9 °F 69% 29.86 in 10.0 mi SSW 12.7 mph - N/A   Mostly Cloudy
10:12 AM 86.0 °F 93.4 °F 73.4 °F 66% 29.87 in 10.0 mi SW 10.4 mph 18.4 mph N/A   Scattered Clouds
10:53 AM 84.9 °F 91.4 °F 73.0 °F 67% 29.86 in 10.0 mi SW 10.4 mph - N/A   Mostly Cloudy
11:53 AM 86.0 °F 93.8 °F 73.9 °F 67% 29.86 in 10.0 mi SSW 9.2 mph - 0.00 in   Mostly Cloudy
12:53 PM 89.1 °F 99.1 °F 75.0 °F 63% 29.84 in 10.0 mi SW 8.1 mph - 0.06 in   Mostly Cloudy
1:16 PM 87.8 °F 95.6 °F 73.4 °F 62% 29.83 in 10.0 mi SSW 10.4 mph - N/A Thunderstorm Thunderstorm
1:24 PM 82.4 °F 88.2 °F 73.4 °F 74% 29.85 in 0.5 mi West 11.5 mph 20.7 mph 0.13 in Rain , Thunderstorm Heavy Thunderstorms and Rain
1:36 PM 80.6 °F 85.4 °F 73.4 °F 79% 29.85 in 5.0 mi Calm Calm - 0.25 in Rain , Thunderstorm Thunderstorms and Rain
1:53 PM 84.9 °F 92.1 °F 73.9 °F 69% 29.85 in 10.0 mi West 3.5 mph - 0.26 in Thunderstorm Thunderstorm
2:53 PM 75.0 °F - 71.1 °F 87% 29.86 in 10.0 mi South 5.8 mph - 0.25 in Rain , Thunderstorm Light Thunderstorms and Rain
3:15 PM 75.2 °F - 71.6 °F 89% 29.88 in 8.0 mi ESE 3.5 mph - 0.00 in Rain Light Rain
3:53 PM 77.0 °F - 73.0 °F 88% 29.87 in 10.0 mi South 3.5 mph - 0.02 in   Overcast
4:53 PM 75.9 °F - 72.0 °F 87% 29.88 in 7.0 mi SSE 9.2 mph 18.4 mph 0.00 in Rain Light Rain
5:53 PM 75.9 °F - 73.0 °F 91% 29.87 in 10.0 mi South 6.9 mph - 0.01 in   Overcast
6:53 PM 75.0 °F - 72.0 °F 90% 29.86 in 10.0 mi South 6.9 mph - 0.00 in   Overcast
7:53 PM 75.0 °F - 72.0 °F 90% 29.87 in 10.0 mi SSE 10.4 mph - N/A   Overcast
8:53 PM 75.0 °F - 72.0 °F 90% 29.87 in 10.0 mi South 9.2 mph - 0.00 in   Overcast
9:53 PM 75.0 °F - 72.0 °F 90% 29.88 in 10.0 mi SSW 3.5 mph - N/A   Overcast
10:53 PM 75.0 °F - 71.1 °F 87% 29.91 in 10.0 mi South 4.6 mph - N/A   Overcast
11:53 PM 73.9 °F - 71.1 °F 91% 29.90 in 10.0 mi SSE 10.4 mph - N/A   Overcast